sat.trackr.live / text

‹ back to catalog

STARLINK-6333

NORAD 56521 · 2023-065U

PAYLOAD ACTIVE UNKNOWN

§ Identity

Operator
Country
US
Launch date
2023-05-14
Launch site
AFETR
Launch vehicle
Mass (kg)
RCS (m²)

Purposes: comms

External: N2YO · Heavens-Above · Gunter

§ Orbital elements

Epoch: 2026-05-24T23:19:36.023808Z

Period
94.27 min
Inclination
43.0015°
Eccentricity
0.0000793
Mean motion
15.27573041 rev/d
Perigee alt
482.5 km
Apogee alt
483.6 km
Semi-major
6,861.2 km
B*
7.8090e-6
RAAN
145.2812°
Arg perigee
278.2345°
Mean anomaly
81.8416°
Rev number
16,822

§ Raw data

STARLINK-63331 56521U 23065U   26144.97194472 -.00000047  00000+0  78090-5 0  99952 56521  43.0015 145.2812 0000793 278.2345  81.8416 15.27573041168229

JSON: /api/v1/satellites/56521 · /tle

For live sub-satellite position, see the globe view (requires WebGL).

§ Visibility from observer

Set your observer location to see the next 7 days of passes ≥ 10°. The values pass through the URL so the page stays shareable.

No JS? Fill the form by hand. The geolocation button needs JavaScript.